Погода в Тонгулахе

Погода в Тонгулахе : погода сейчас, прогноз погоды и архив. Всё, что Вы хотите узнать о погоде в Тонгулахе!

Поиск расширенной информации на нашем сайте:

Другие новости

Новости СМИ2

Главная страница сайта

Новости сайта

03.07.2017

Напоминаем, что на нашем специализированном сайте Метеоцентр.Азия вы можете получить высокодетализированные автоматические прогнозы погоды по пунктам России, СНГ и мира в авиационном формате (включающие направление и скорость ветра, видимость, явления погоды, количество и форму облачности, нижнюю и верхнюю границу облачности).


Погода в Тонгулахе - сегодня

Время (UTC), дата Ветер
(°,м/с) 
Видим.   Явления Облачность Т
(°С)
Тd
(°С)
f(%) Тe
(°С)
Pmin
(гПа)
dP
(гПа)
Po
(мм)
O2
(г/м3)
Тmin Tmax R s Состояние
почвы
18 19.02.18 тихо ()   20000 м    4/0 верхняя 
[Ci fib]
-40.5 -43.3 74 -41  1021.5  -0.7  744  354           
21 19.02.18 тихо ()   20000 м    ясно 
-42.8 -45.6 74 -43  1021.5  -0.2  744  358           
03 20.02.18 270 (З) 20000 м    10/0 верхняя 
[Cs]
-33.5 -35.6 81 -40  1019.9  -0.3  744  343           
06 20.02.18 270 (З) 20000 м    10/0 верхняя 
[Cs]
-25.5 -29.4 70 -26  1018.2  -0.8  743  332           
09 20.02.18 тихо ()   20000 м    3/0 верхняя 
[Ci fib]
-28 -31.2 74 -28  1018.7  0.3  728  329           
15 20.02.18 тихо ()   20000 м    ясно 
-37.8 -40.5 76 -38  1019.4  -1  743  349           
18 20.02.18 тихо ()   20000 м    ясно 
-38.2 -40.9 75 -38  1018.8  -0.6  742  350           
21 20.02.18 тихо ()   20000 м    ясно 
-43.5 -45.3 82 -44  1019.8  0.2  743  358           
03 21.02.18 тихо ()   20000 м    ясно 
-32 -35 75 -32  1018.5  0.1  743  341           
09 21.02.18 тихо ()   20000 м    3/0 верхняя 
[Ci fib]
-28 -31.9 69 -28  1018.5  0.9  743  335           
15 21.02.18 тихо ()   20000 м    3/0 верхняя 
[Ci fib]
-38 -40.9 74 -38  1028  0.1  744  350           
18 21.02.18 тихо ()   20000 м    3/0 верхняя 
[Ci fib]
-40 -42.4 78 -40  1020.9  0.2  744  353           
21 21.02.18 тихо ()   20000 м    ясно 
-42.9 -46.6 67 -43  1021.4  0.2  736  354           
03 22.02.18 тихо ()   20000 м    ясно 
-31.5 -34.5 75 -32  1021  -0.1  744  341           
06 22.02.18 тихо ()   20000 м    ясно 
-21.7 -26.5 65 -22  1019.5  -0.1  744  328           
09 22.02.18 тихо ()   20000 м    ясно 
-26.5 -29.8 74 -27  1021.4  1.3  745  334           
12 22.02.18 тихо ()   20000 м    ясно 
-31 -34.1 74 -31  1023.3  1.3  746  341    -31       
15 22.02.18 тихо ()   20000 м    ясно 
-37.3 -40.1 75 -37  1025.3  1.3  747  351           
18 22.02.18 тихо ()   20000 м    ясно 
-38.1 -40.9 75 -38  1026.4  0.9  748  352           
21 22.02.18 тихо ()   20000 м    ясно 
-41.8 -44.4 76 -42  1028.4  1.4  749  358           
03 23.02.18 тихо ()   20000 м    ясно 
-29 -32.8 70 -29  1029  0.7  751  340           
06 23.02.18 тихо ()   20000 м    ясно 
-21.3 -26.1 65 -21  1028.6  0.5  751  330           
09 23.02.18 тихо ()   20000 м    ясно 
-24 -28.8 64 -24  1030.4  1.3  752  334           
12 23.02.18 тихо ()   20000 м    ясно 
-33 -35 82 -33  1032.6  1.2  753  347    -21       
15 23.02.18 тихо ()   20000 м    ясно 
-36.7 -39.4 76 -37  1033.5  0.4  753  353           
Время (UTC), дата Ветер
(°,м/с) 
Видим.   Явления Облачность Т
(°С)
Тd
(°С)
f(%) Тe
(°С)
Pmin
(гПа)
dP
(гПа)
Po
(мм)
O2
(г/м3)
Тmin Tmax R s Состояние
почвы

Для получения пояснительной информации подведите курсор к названию столбца.

ПОГОДА в Тонгулахе - архив

Всё, что Вы хотите узнать о погоде в Тонгулахе - удобно и подробно!

Выберите нужную дату (начиная с 1 января 2015* года) и нажмите кнопку "Найти".
Будут отображены архивные сводки погоды по пункту Тонгулах, начиная с указанной даты.


Отображать данные в формате CSV (для использования в таблицах Excel)


Внимание! Наш архив погоды предназначен исключительно для личного некоммерческого использования в познавательных целях. Если Вам необходимы официальные справки о состоянии погоды (для производственных, юридических, коммерческих и т.п. целей), обращайтесь в органы Росгидромета.

*Примечание: данная дата относится к архиву по метеостанциям СССР (Россия, СНГ, Балтия).
Архив по метеостанциям Зарубежной Европы и Азии (кроме Китая) хранится 10 дней, по другим регионам земного шара (Китай, Африка, Америка, Австралия, Океания) - 1 день.

Тонгулах - район местоположения метеостанции


Название, широта, долгота, высота метеостанции:
Тонгулах 62°ш. 124.9°д. 205 м над ур. моря [Российская Федерация]

Дополнительная информация

В oтличие oт бoльшинства пoгoдных сайтoв мы публикуем пoдрoбную метеoинфoрмацию в детальнoм прoфессиoнальнoм фoрмате.

Характеристики температуры и влажнoсти вoздуха измеряются на высoте 2 м в тени вдали oт зданий и деревьев.
Скoрoсть ветра измеряется на высoте 10 м (на урoвне рoста челoвека скoрoсть ветра ниже в 1.5-2 раза). Если метеoстанция нахoдится в гoрoде или в лесу, тo скoрoсть ветра занижена на 2-4 м/с пo сравнению с oткрытым местoм. Скoрoсть ветра над акватoриями крупных рек и oзёр, а также на вершинах хoлмoв на 2-5 м/с выше, чем в oбычных услoвиях.
Атмoсфернoе давление в разных тoчках местнoсти мoжет значительнo oтличаться oт давления на метеoстанции, в зависимoсти oт услoвий рельефа (при пoдъёме на 10 м давление пoнижается примернo на 1 мм рт.ст.).